Preview of NWS' New Version of Forecast
This preview is not operational and should not be used for support decisions.

Regional Weather Roundup (RWR)

Issued by National Weather Service (NWS)

                            
000
ASUS46 KPQR 240410
RWROR 

OREGON REGIONAL WEATHER ROUNDUP
NATIONAL WEATHER SERVICE PORTLAND OR
900 PM PDT FRI AUG 23 2019

NOTE: "FAIR" INDICATES FEW OR NO CLOUDS BELOW 12,000 FEET WITH
NO SIGNIFICANT WEATHER AND/OR OBSTRUCTIONS TO VISIBILITY.

ORZ001>013-240500-
NORTHWEST OREGON

  
CITY           SKY/WX    TMP DP  RH WIND       PRES   REMARKS
ASTORIA        MOCLDY    62  52  69 NW12      29.95R                  
TILLAMOOK      MOCLDY    59  52  77 S3        29.96R                  
NEWPORT        PTCLDY    55  52  88 N6        29.97R                  
FLORENCE       FAIR      59  50  72 N9G17     29.92R                  
PORTLAND       MOCLDY    74  58  57 NW9       29.87R                  
VANCOUVER WA   MOCLDY    73  56  54 N6        29.86R                  
SCAPPOOSE      MOCLDY    72  57  59 NW7       29.87R                  
HILLSBORO      MOCLDY    71  54  54 NW12      29.87R                  
AURORA         PTCLDY    75  54  47 N6        29.87R                  
MCMINNVILLE    PTCLDY    68  55  63 SW9       29.86R                  
SALEM          PTCLDY    72  53  51 W6        29.86R                  
CORVALLIS      CLEAR     69  54  58 NW16      29.88R                  
EUGENE         MOCLDY    72  54  53 N5        29.87R                  
CRESWELL       CLEAR     66  55  68 CALM      29.86R                  
$$

ORZ021-028-240500-
SOUTHWEST OREGON

  
CITY           SKY/WX    TMP DP  RH WIND       PRES   REMARKS
NORTH BEND     PTCLDY    60  53  77 N13G21    29.94R                  
BROOKINGS      CLEAR     60  55  83 CALM      29.85R                  
ROSEBURG       PTCLDY    75  48  38 CALM      29.86R                  
SEXTON SUMMIT  MOCLDY    65  43  44 N12G18    30.00R                  
GRANTS PASS    FAIR      75  46  35 CALM      29.89R                  
MEDFORD        MOCLDY    78  48  34 NE6       29.85R                  
$$

ORZ014>016-041-240500-
COLUMBIA GORGE

  
CITY           SKY/WX    TMP DP  RH WIND       PRES   REMARKS
TROUTDALE      MOCLDY    75  58  55 VRB5      29.86R                  
HOOD RIVER     MOCLDY    73  50  43 W7G16     29.84R                  
THE DALLES     MOCLDY    77  50  38 NW6       29.79R                  
$$

ORZ029>031-041-044-049-050-061>064-502-503-505>511-240500-
EASTERN OREGON

  
CITY           SKY/WX    TMP DP  RH WIND       PRES   REMARKS
MADRAS         CLEAR     66  45  45 NW6       29.90S                  
REDMOND        CLEAR     69  42  37 W3        29.92R                  
BEND           CLEAR     72  45  37 CALM      29.94R                  
PRINEVILLE     CLEAR     66  41  39 CALM      29.92S                  
KLAMATH FALLS  MOCLDY    71  51  49 NW5       29.98R                  
LAKEVIEW       MOCLDY    64  45  49 CALM      30.02R                  
HERMISTON      CLOUDY    73  48  41 S5        29.77R                  
PENDLETON      CLOUDY    77  42  28 S6        29.81F                  
JOHN DAY         N/A     75  28  18 CALM      29.96R                  
MEACHAM        MOCLDY    61  45  55 CALM      29.96S                  
LA GRANDE      MOCLDY    70  44  39 N7        29.90R                  
BAKER CITY     PTCLDY    67  47  48 W8        29.94R                  
BURNS          CLEAR     65  36  34 SW3       29.97R                  
ROME             N/A     76  29  17 NE7       29.94R                  
ONTARIO        MOCLDY    72  52  49 CALM      29.87R                  
$$